Regional Weather Roundup
Issued by NWS

Home | Current Version | Previous Version | Text Only | Print | Product List | Glossary Off
Versions: 1 2 3 4 5 6 7 8 9 10 11 12 13 14 15 16 17 18 19 20 21 22 23 24 25 26 27 28 29 30 31 32 33 34 35 36 37 38 39 40 41 42 43 44 45 46 47 48 49 50

000
ASUS43 KDMX 062203
RWRIA

WEATHER ROUNDUP FOR IOWA
NATIONAL WEATHER SERVICE DES MOINES IA
400 PM CST SAT FEB 06 2016

NOTE: "FAIR" INDICATES FEW OR NO CLOUDS BELOW 12,000 FEET WITH NO
SIGNIFICANT WEATHER AND/OR OBSTRUCTIONS TO VISIBILITY.

* - THESE STATIONS ARE NOT NWS STATIONS...THUS NOT UNDER NWS
QUALITY CONTROL.  THEY ALSO DO NOT REPORT WEATHER SUCH
AS PRECIPITATION OR FOG.

IAZ001>003-012>014-020>022-031>034-043>046-062300-
   NORTHWEST IOWA

CITY           SKY/WX    TMP DP  RH WIND       PRES   REMARKS
CARROLL *      MOSUNNY   34  30  86 SW17G23   30.04F WCI  23
CHEROKEE *     CLOUDY    36  30  80 S14       29.98F WCI  27
DENISON *      CLOUDY    36  28  75 S13       30.03S WCI  27
LE MARS *      SUNNY     37  30  75 S16G24    29.96F WCI  28
ORANGE CITY *  SUNNY     34  30  86 S13       29.94F WCI  25
SHELDON *      SUNNY     34  28  80 S18       29.93F WCI  23
SIOUX CITY     CLOUDY    39  26  59 S14       29.99F WCI  31
SPENCER        CLOUDY    35  27  72 S17       29.95F WCI  25
STORM LAKE *   SUNNY     34  32  93 S20       29.99F WCI  22
$$

IAZ055>058-069>071-079>083-090>094-062300-
   SOUTHWEST IOWA

CITY           SKY/WX    TMP DP  RH WIND       PRES   REMARKS
ATLANTIC *     SUNNY     37  28  70 SW15G22   30.10F WCI  28
AUDUBON *      SUNNY     36  28  75 S15       30.08F WCI  26
CLARINDA *     SUNNY     45  32  61 SW15      30.15F
COUNCIL BLFS * CLOUDY    37  28  70 SW17G23   30.08F WCI  28
CRESTON *      SUNNY     39  32  75 SW12      30.13F WCI  32
HARLAN  *      SUNNY     36  28  75 S15G22    30.10F WCI  26
LAMONI         SUNNY     40  32  73 SW15      30.14F WCI  32
RED OAK *      SUNNY     41  32  70 SW9G15    30.12F
SHENANDOAH *   SUNNY     45  37  76 SW12      30.14F
$$

IAZ047>049-059>061-072>074-084-062300-
   CENTRAL IOWA

CITY           SKY/WX    TMP DP  RH WIND       PRES   REMARKS
AMES           SUNNY     32  29  88 S9        30.10F WCI  24
ANKENY *       SUNNY     37  30  75 SW10      30.12F WCI  30
BOONE *        SUNNY     34  28  80 SW12G20   30.07F WCI  25
CHARITON *     MOSUNNY   36  30  80 SW10      30.14F WCI  28
DES MOINES     MOSUNNY   37  28  70 SW12      30.13F WCI  29
GRINNELL*      CLOUDY    32  30  92 SW12      30.13S WCI  23
KNOXVILLE *    SUNNY     37  30  75 SW10      30.12F WCI  30
MARSHALLTOWN   PTSUNNY   32  28  85 SW10      30.11F WCI  24
NEWTON *       SUNNY     34  32  93 SW10      30.12F WCI  26
PELLA *        MOSUNNY   37  32  81 SW9       30.15F WCI  31
$$

IAZ004>006-015-016-023>025-035-036-062300-
   NORTH CENTRAL IOWA

CITY           SKY/WX    TMP DP  RH WIND       PRES   REMARKS
ALGONA *       MOSUNNY   32  30  93 S20       29.99F WCI  20
CLARION *      MOSUNNY   30  30 100 S17       30.04F WCI  18
ESTHERVILLE    CLOUDY    34  27  75 S18       29.95F WCI  23
FORT DODGE *   MOSUNNY   34  27  75 S17       30.04F WCI  23
MASON CITY     PTSUNNY   29  27  92 S16       30.04F WCI  17
FOREST CITY *  PTSUNNY   30  30 100 S13       30.02F WCI  20
WEBSTER CITY * SUNNY     32  30  93 S16       30.04F WCI  21
IOWA FALLS *   CLOUDY    31  28  88 S15       30.09F WCI  20
$$

IAZ007>011-017>019-026>030-037>042-050>054-066-062300-
   NORTHEAST IOWA

CITY           SKY/WX    TMP DP  RH WIND       PRES   REMARKS
CEDAR RAPIDS   MOSUNNY   37  33  85 W6        30.13F WCI  32
CHARLES CITY * CLOUDY    28  28 100 S13       30.08F WCI  18
CLINTON *      SUNNY     37  32  82 NW13      30.15S WCI  29
DECORAH *      MOSUNNY   30  27  86 SW7       30.07F WCI  23
DUBUQUE        CLOUDY    30  27  88 SW10      30.13F WCI  21
MONTICELLO *   CLOUDY    34  30  86 W5        30.13F WCI  30
OELWEIN *      CLOUDY    30  30 100 SW13      30.11S FOG     WCI  20
WATERLOO       CLOUDY    30  27  88 S13       30.12S WCI  20
$$

IAZ064-065-067-068-078-062300-
   EAST CENTRAL IOWA

CITY           SKY/WX    TMP DP  RH WIND       PRES   REMARKS
DAVENPORT      SUNNY     41  32  70 W12       30.15S
IOWA CITY      PTSUNNY   41  32  70 SW10      30.15F
MT. PLEASANT * MOSUNNY   46  34  61 SW12      30.16S
MUSCATINE *    MOSUNNY   45  30  57 SW12      30.16S
QUAD CITIES    SUNNY     43  29  57 W12       30.15R
$$

IAZ062-063-075>077-085>089-095>099-062300-
   SOUTHEAST IOWA

CITY           SKY/WX    TMP DP  RH WIND       PRES   REMARKS
BURLINGTON     SUNNY     46  30  53 SW10      30.15S
FAIRFIELD *    SUNNY     45  30  57 SW10      30.13F
FORT MADISON * SUNNY     46  30  53 SW13      30.16S
KEOKUK *       SUNNY     48  28  46 SW15G21   30.15F
OSKALOOSA *      N/A     39  32  75 W10       30.14F WCI  32
OTTUMWA        SUNNY     42  32  67 W10       30.14F
WASHINGTON *   MOSUNNY   43  32  65 SW10      30.15F
$$

ABBREVIATIONS USED IN REMARKS
   TC - TEMPERATURES IN CELSIUS
  WCI - WIND CHILL INDEX
   HX - HEAT INDEX
  VSB - VISIBILITY
$$




USA.gov is the U.S. government's official web portal to all federal, state and local government web resources and services.